Weather in Novoprimorskiy

Russia / Rostov Oblast     47°18′13″N   39°04′17″E
temp.,
°C
wind,
m/s
gust,
m/s
humid.,
%
clouds,
%
prec.,
mm/h
press.,
hPa
HPBL,
m
10 august, wed
wed1000:00+25ene34360 0.0 101467
03:00+24ene34380 0.0 101360
06:00+24ene46400 0.0 1013129
09:00+30ene57310 0.0 1013689
12:00+33e68270 0.0 10111934
15:00+34ese58263 0.0 10092384
18:00+33ese472863 0.0 10082029
21:00+30ene453198 0.0 100885
11 august, thu
thu1100:00+28ene5103695 0.0 1008168
03:00+26ene5104049 0.0 1008202
06:00+25ene5104422 0.0 1010239
09:00+30e7103560 0.0 1010863
12:00+32e71030100 0.0 10091508
15:00+32e71031100 0.0 10081410
18:00+33ne6929100 0.0 1007418
21:00+31e61136100 0.0 1007256
12 august, fri
fri1200:00+27ese61257100 0.2 1009269
03:00+27e51149100 0.4 1010280
06:00+26e6124318 0.0 1011365
09:00+29ese7113966 0.1 1012838
12:00+32ese8103277 0.0 10121450
15:00+33se483522 0.1 10111820
18:00+33se483510 0.0 10101139
21:00+27ne445349 0.6 101166
13 august, sat
sat1300:00+27e716450 0.0 1012303
03:00+26e511450 0.0 1012222
06:00+25e612440 0.0 1013294
09:00+29ese711350 0.0 1014640
12:00+34ese710260 0.0 10121541
15:00+36ese69230 0.0 10102049
18:00+34se811271 0.0 1010893
21:00+30e58320 0.0 1010128
14 august, sun
sun1400:00+28ene510360 0.0 1010171
03:00+26ene612380 0.0 1010243
06:00+26e714390 0.0 1011344
09:00+30e9133178 0.0 1011882
12:00+34ese811255 0.0 10101830
15:00+36ese79243 0.0 10082358
18:00+35ese692534 0.0 10072191
21:00+31ene612270 0.0 1008213